TimeCST,TemperatureF,Dew PointF,Humidity,Sea Level PressureIn,VisibilityMPH,Wind Direction,Wind SpeedMPH,Gust SpeedMPH,PrecipitationIn,Events,Conditions,WindDirDegrees,DateUTC
12:14 AM,5.0,1.4,85,30.11,10.0,WNW,10.4,-,N/A,Snow,Light Snow,300,2013-01-03 06:14:00
12:35 AM,3.2,1.4,92,30.11,7.0,WNW,8.1,-,N/A,Snow,Light Snow,300,2013-01-03 06:35:00
1:15 AM,5.0,1.4,85,30.12,10.0,NW,12.7,-,N/A,,Overcast,310,2013-01-03 07:15:00
1:35 AM,5.0,1.4,85,30.13,10.0,NW,12.7,-,N/A,,Overcast,310,2013-01-03 07:35:00
1:53 AM,3.2,1.4,92,30.13,10.0,NW,10.4,-,N/A,,Overcast,310,2013-01-03 07:53:00
2:15 AM,3.2,-0.4,85,30.14,10.0,WNW,9.2,-,N/A,Snow,Light Snow,300,2013-01-03 08:15:00
2:35 AM,3.2,-0.4,85,30.14,7.0,WNW,11.5,-,N/A,Snow,Light Snow,300,2013-01-03 08:35:00
2:52 AM,3.2,-0.4,85,30.14,10.0,WNW,12.7,-,N/A,,Overcast,300,2013-01-03 08:52:00
3:14 AM,3.2,-0.4,85,30.15,10.0,WNW,11.5,-,N/A,,Overcast,300,2013-01-03 09:14:00
3:35 AM,3.2,-0.4,85,30.16,10.0,WNW,10.4,-,N/A,,Overcast,300,2013-01-03 09:35:00
3:52 AM,3.2,-0.4,85,30.17,10.0,WNW,9.2,-,N/A,Snow,Light Snow,300,2013-01-03 09:52:00
4:15 AM,1.4,-0.4,92,30.17,7.0,WNW,11.5,-,N/A,Snow,Light Snow,300,2013-01-03 10:15:00
4:35 AM,1.4,-2.2,85,30.17,7.0,WNW,11.5,17.3,N/A,Snow,Light Snow,300,2013-01-03 10:35:00
4:53 AM,1.4,-2.2,85,30.18,7.0,WNW,10.4,-,N/A,Snow,Light Snow,300,2013-01-03 10:53:00
5:15 AM,-0.4,-2.2,92,30.18,10.0,NW,12.7,-,N/A,,Overcast,310,2013-01-03 11:15:00
5:35 AM,-0.4,-4.0,85,30.18,10.0,WNW,11.5,-,N/A,,Overcast,300,2013-01-03 11:35:00
5:53 AM,-0.4,-4.0,85,30.19,10.0,WNW,11.5,-,N/A,,Mostly Cloudy,300,2013-01-03 11:53:00
6:15 AM,-0.4,-4.0,85,30.19,10.0,WNW,6.9,-,N/A,,Scattered Clouds,300,2013-01-03 12:15:00
6:35 AM,-2.2,-5.8,85,30.19,10.0,WNW,5.8,-,N/A,,Clear,300,2013-01-03 12:35:00
6:53 AM,-2.2,-5.8,85,30.19,7.0,West,4.6,-,N/A,,Clear,280,2013-01-03 12:53:00
7:14 AM,-2.2,-5.8,85,30.19,10.0,WNW,6.9,-,N/A,,Clear,290,2013-01-03 13:14:00
7:35 AM,-2.2,-5.8,85,30.19,10.0,WNW,6.9,-,N/A,,Clear,290,2013-01-03 13:35:00
7:53 AM,-2.2,-7.6,78,30.20,10.0,WNW,8.1,-,N/A,,Clear,290,2013-01-03 13:53:00
8:15 AM,-2.2,-7.6,78,30.19,10.0,West,4.6,-,N/A,,Clear,280,2013-01-03 14:15:00
8:35 AM,-2.2,-7.6,78,30.20,10.0,West,5.8,-,N/A,,Clear,280,2013-01-03 14:35:00
8:53 AM,-2.2,-5.8,85,30.20,10.0,West,5.8,-,N/A,,Clear,270,2013-01-03 14:53:00
9:14 AM,-2.2,-5.8,85,30.21,10.0,West,8.1,-,N/A,,Clear,270,2013-01-03 15:14:00
9:35 AM,-2.2,-5.8,85,30.21,10.0,West,6.9,-,N/A,,Clear,270,2013-01-03 15:35:00
9:53 AM,-0.4,-5.8,78,30.20,10.0,West,5.8,-,N/A,,Clear,260,2013-01-03 15:53:00
10:35 AM,3.2,-2.2,78,30.20,10.0,West,5.8,-,N/A,,Clear,270,2013-01-03 16:35:00
10:53 AM,3.2,-0.4,85,30.20,10.0,West,6.9,-,N/A,,Clear,270,2013-01-03 16:53:00
11:14 AM,6.8,-0.4,72,30.19,10.0,West,5.8,-,N/A,,Clear,270,2013-01-03 17:14:00
11:35 AM,8.6,1.4,73,30.18,10.0,West,5.8,-,N/A,,Clear,280,2013-01-03 17:35:00
11:53 AM,8.6,3.2,79,30.16,10.0,WSW,9.2,-,N/A,,Clear,250,2013-01-03 17:53:00
12:14 PM,10.4,3.2,73,30.16,10.0,West,9.2,-,N/A,,Clear,260,2013-01-03 18:14:00
12:35 PM,10.4,5.0,79,30.16,10.0,West,5.8,-,N/A,,Scattered Clouds,270,2013-01-03 18:35:00
12:53 PM,10.4,6.8,85,30.15,10.0,West,11.5,-,N/A,,Unknown,260,2013-01-03 18:53:00
1:15 PM,12.2,6.8,79,30.14,10.0,West,10.4,-,N/A,,Overcast,260,2013-01-03 19:15:00
1:35 PM,12.2,6.8,79,30.13,10.0,WSW,9.2,-,N/A,Snow,Light Snow,250,2013-01-03 19:35:00
1:53 PM,12.2,6.8,79,30.12,7.0,West,9.2,-,N/A,Snow,Light Snow,260,2013-01-03 19:53:00
2:15 PM,12.2,8.6,85,30.11,10.0,WSW,13.8,18.4,N/A,Snow,Light Snow,250,2013-01-03 20:15:00
2:35 PM,12.2,8.6,85,30.10,10.0,WSW,9.2,-,N/A,Snow,Light Snow,250,2013-01-03 20:35:00
2:53 PM,12.2,6.8,79,30.10,10.0,SW,9.2,-,N/A,Snow,Light Snow,230,2013-01-03 20:53:00
3:14 PM,12.2,8.6,85,30.11,10.0,WSW,10.4,-,N/A,,Overcast,250,2013-01-03 21:14:00
3:53 PM,12.2,8.6,85,30.11,10.0,WSW,10.4,-,N/A,,Overcast,250,2013-01-03 21:53:00
4:14 PM,12.2,8.6,85,30.11,10.0,WSW,11.5,16.1,N/A,,Overcast,250,2013-01-03 22:14:00
4:34 PM,12.2,10.4,92,30.10,10.0,SW,10.4,-,N/A,,Overcast,230,2013-01-03 22:34:00
4:53 PM,14.0,10.4,86,30.09,10.0,SW,11.5,17.3,N/A,,Overcast,230,2013-01-03 22:53:00
5:15 PM,14.0,10.4,86,30.08,10.0,SW,12.7,-,N/A,,Overcast,230,2013-01-03 23:15:00
5:34 PM,14.0,10.4,86,30.07,10.0,WSW,12.7,18.4,N/A,,Overcast,240,2013-01-03 23:34:00
5:53 PM,14.0,10.4,86,30.05,10.0,WSW,11.5,19.6,N/A,,Overcast,240,2013-01-03 23:53:00
6:15 PM,12.2,10.4,92,30.05,10.0,SW,8.1,-,N/A,,Mostly Cloudy,230,2013-01-04 00:15:00
6:35 PM,12.2,10.4,92,30.04,10.0,SW,9.2,-,N/A,,Clear,230,2013-01-04 00:35:00
6:52 PM,12.2,8.6,85,30.03,10.0,SW,8.1,-,N/A,,Clear,230,2013-01-04 00:52:00
7:15 PM,12.2,8.6,85,30.03,10.0,WSW,9.2,-,N/A,,Clear,240,2013-01-04 01:15:00
7:35 PM,12.2,8.6,85,30.02,10.0,WSW,8.1,-,N/A,,Clear,240,2013-01-04 01:35:00
7:53 PM,10.4,8.6,92,30.01,10.0,SW,9.2,-,N/A,,Clear,230,2013-01-04 01:53:00
8:15 PM,12.2,10.4,92,29.99,10.0,SW,11.5,-,N/A,,Clear,230,2013-01-04 02:15:00
8:35 PM,12.2,10.4,92,29.98,10.0,SW,12.7,-,N/A,,Clear,230,2013-01-04 02:35:00
8:52 PM,15.8,10.4,79,29.97,10.0,SW,12.7,19.6,N/A,,Clear,230,2013-01-04 02:52:00
9:14 PM,15.8,10.4,79,29.95,10.0,WSW,13.8,-,N/A,,Clear,240,2013-01-04 03:14:00
9:35 PM,15.8,10.4,79,29.95,10.0,WSW,11.5,-,N/A,,Clear,240,2013-01-04 03:35:00
9:52 PM,15.8,10.4,79,29.95,10.0,WSW,11.5,-,N/A,,Clear,240,2013-01-04 03:52:00
10:14 PM,15.8,10.4,79,29.95,10.0,WSW,11.5,-,N/A,,Clear,250,2013-01-04 04:14:00
10:35 PM,15.8,10.4,79,29.95,10.0,WSW,10.4,-,N/A,,Clear,240,2013-01-04 04:35:00
10:53 PM,15.8,10.4,79,29.95,10.0,WSW,11.5,16.1,N/A,,Clear,240,2013-01-04 04:53:00
11:14 PM,15.8,10.4,79,29.94,10.0,WSW,11.5,19.6,N/A,,Clear,240,2013-01-04 05:14:00
11:35 PM,15.8,10.4,79,29.94,10.0,WSW,12.7,-,N/A,,Clear,240,2013-01-04 05:35:00
11:52 PM,15.8,10.4,79,29.93,10.0,WSW,15.0,20.7,N/A,,Clear,240,2013-01-04 05:52:00